Regional Weather Roundup
Issued by NWS

Home | Current Version | Previous Version | Text Only | Print | Product List | Glossary Off
Versions: 1 2 3 4 5 6 7 8 9 10 11 12 13 14 15 16 17 18 19 20 21 22 23 24 25 26 27 28 29 30 31 32 33 34 35 36 37 38 39 40 41 42 43 44 45 46 47 48 49 50

221
ASUS44 KLIX 192110
RWRLA
LOUISIANA WEATHER ROUNDUP
NATIONAL WEATHER SERVICE NEW ORLEANS LA
400 PM CDT TUE AUG 19 2014

NOTE: "FAIR" INDICATES FEW OR NO CLOUDS BELOW 12,000 FEET WITH NO
      SIGNIFICANT WEATHER AND/OR OBSTRUCTIONS TO VISIBILITY.
      SKY/WX - SKY CONDITION AND SIGNIFICANT WEATHER.
      TMP - AIR TEMPERATURE.    DP   - DEWPOINT TEMPERATURE.
      RH  - RELATIVE HUMIDITY.  PRES - PRESSURE.
      HX  - HEAT INDEX.         WCI  - WIND CHILL INDEX.

*  THESE STATIONS ARE NOT NWS OR FAA STATIONS AND ARE NOT UNDER
   NWS QUALITY CONTROL.

LAZ040-048-061>063-065-066-069-192200-
SOUTHEAST LOUISIANA

CITY           SKY/WX    TMP DP  RH WIND       PRES   REMARKS
N.O. AUDUBON     N/A     87  76  69 MISG        N/A  HX  98
N.O. INTL ARPT PTSUNNY   84  74  71 NW3       29.94F
N.O. LAKEFRONT LGT RAIN  86  75  69 CALM      29.95F HX  95
N.O. DOWNTOWN* FAIR      91  72  52 W8        29.95F HX  98
SLIDELL        MOSUNNY   93  69  45 SW7       29.93F HX  98
BATON ROUGE    MOSUNNY   94  70  45 SW9       29.94F HX 100
BOOTHVILLE     MOSUNNY   88  76  67 SW10      29.97F HX  99
BELLE CHASSE   PTSUNNY   85  75  72 CALM      29.94F THUNDER
BOGALUSA*        N/A     95  71  45 SW3       29.94F HX 101
GALLIANO*      NOT AVBL
NEW ROADS*     FAIR      85  73  66 MISG      29.95
GONZALES*      FAIR      83  74  74 S9        29.96R
HAMMOND*       CLOUDY    84  72  65 S10G16    29.97R THUNDER
HOUMA*         MOSUNNY   93  72  49 SW7       29.96F HX 100
PORT FOURCHON* PTCLDY    90  73  58 SW8       29.98F HX  98

$$

LAZ041-044-053-054-192200-
SOUTHWEST LOUISIANA

CITY           SKY/WX    TMP DP  RH WIND       PRES   REMARKS
LAKE CHARLES   LGT RAIN  74  71  91 SE12      29.98F
LAFAYETTE      TSTM      76  73  91 S3        29.99S
PATTERSON      MOSUNNY  N/A N/A N/A MISG        N/A
SALT POINT       N/A     92  77  61 VRB5      29.97R HX 105
NEW IBERIA     PTSUNNY   80  72  76 N6        29.99R
CHENAULT AIRPK TSTM      73  70  88 S12       30.00F

$$

LAZ027-028-192200-
CENTRAL LOUISIANA

CITY           SKY/WX    TMP DP  RH WIND       PRES   REMARKS
FORT POLK      PTSUNNY   82  73  74 SW10G16   29.96R
ALEXANDRIA INT MOSUNNY   94  68  42 NW9       29.91S HX  98
ALEXANDRIA     MOSUNNY   95  71  45 CALM      29.93S HX 102

$$

LAZ001-002-192200-
NORTHWEST LOUISIANA

CITY           SKY/WX    TMP DP  RH WIND       PRES   REMARKS
SHREVEPORT     PTSUNNY   94  71  47 SW7       29.89F HX 101
BARKSDALE AFB  MOSUNNY   93  69  45 SW6       29.90F HX  99
DTN SHREVEPORT MOSUNNY   94  67  41 SW9       29.90F HX  97

$$

LAZ014-016-192200-
NORTHEAST LOUISIANA

CITY           SKY/WX    TMP DP  RH WIND       PRES   REMARKS
MONROE         MOSUNNY   92  73  53 SW9       29.91F HX 100
TALLULAH       PTSUNNY   91  74  57 VRB7      29.91F HX 100

$$




USA.gov is the U.S. government's official web portal to all federal, state and local government web resources and services.